This is the latest recevied weather packets stored in our database for station/object WC4PEM-15. If no packets are shown the sender has not sent any weather packets the latest 1 day(s).
| Time | Temp. | Humidity | Pressure | Rain* | Wind** | Luminosity | Snow |
|---|---|---|---|---|---|---|---|
| 1778017200 | 28.89° C | 51% | 1014.2 hPa | 0 mm | 5.36 m/s, 87° | - | - |
| 1778016958 | 29.44° C | 50% | 1014.2 hPa | 0 mm | 4.92 m/s, 111° | - | - |
| 1778016900 | 29.44° C | 50% | 1014.2 hPa | 0 mm | 4.92 m/s, 111° | - | - |
| 1778016660 | 29.44° C | 50% | 1014.1 hPa | 0 mm | 4.02 m/s, 90° | - | - |
| 1778016600 | 29.44° C | 50% | 1014.1 hPa | 0 mm | 4.02 m/s, 90° | - | - |
| 1778016411 | 29.44° C | 48% | 1014 hPa | 0 mm | 3.58 m/s, 118° | - | - |
| 1778016300 | 29.44° C | 48% | 1014 hPa | 0 mm | 3.58 m/s, 118° | - | - |
| 1778016065 | 29.44° C | 49% | 1014.3 hPa | 0 mm | 3.58 m/s, 115° | - | - |
| 1778016000 | 29.44° C | 49% | 1014.3 hPa | 0 mm | 3.58 m/s, 115° | - | - |
| 1778015700 | 29.44° C | 49% | 1014.3 hPa | 0 mm | 4.02 m/s, 109° | - | - |
| 1778015400 | 29.44° C | 49% | 1014.1 hPa | 0 mm | 4.02 m/s, 99° | - | - |
| 1778015194 | 28.89° C | 51% | 1014.2 hPa | 0 mm | 3.58 m/s, 106° | - | - |
| 1778015100 | 28.89° C | 51% | 1014.2 hPa | 0 mm | 3.58 m/s, 106° | - | - |
| 1778014991 | 28.89° C | 50% | 1014.2 hPa | 0 mm | 4.02 m/s, 113° | - | - |
| 1778014800 | 28.89° C | 50% | 1014.2 hPa | 0 mm | 4.02 m/s, 113° | - | - |
| 1778014695 | 28.89° C | 51% | 1014.3 hPa | 0 mm | 4.02 m/s, 85° | - | - |
| 1778014500 | 28.89° C | 51% | 1014.3 hPa | 0 mm | 4.02 m/s, 85° | - | - |
| 1778014200 | 29.44° C | 51% | 1014.1 hPa | 0 mm | 4.47 m/s, 97° | - | - |
| 1778013961 | 29.44° C | 50% | 1014.2 hPa | 0 mm | 4.47 m/s, 101° | - | - |
| 1778013900 | 29.44° C | 50% | 1014.2 hPa | 0 mm | 4.47 m/s, 101° | - | - |
| 1778013600 | 29.44° C | 51% | 1014.2 hPa | 0 mm | 5.81 m/s, 68° | - | - |
| 1778013300 | 29.44° C | 51% | 1014.3 hPa | 0 mm | 6.26 m/s, 92° | - | - |
| 1778013059 | 28.89° C | 52% | 1014.3 hPa | 0 mm | 5.81 m/s, 100° | - | - |
| 1778013000 | 28.89° C | 52% | 1014.3 hPa | 0 mm | 5.81 m/s, 100° | - | - |
| 1778012752 | 28.89° C | 51% | 1014.2 hPa | 0 mm | 4.92 m/s, 106° | - | - |
* Rain latest hour (hover to see other rain measurements)
** Current wind speed in m/s (hover to see current wind gust speed)